EHI
27 34 44 31 8 0 0 0 0 0 0 0 0 0 0 0 0 0 0 0 0 0 0 0 0 0 0 0 0 0 0 0 0 0 0 0 0 0 0 0 0 0 0
30 34 43 34 11 1 0 0 0 0 0 0 0 0 0 0 0 0 0 0 0 0 0 0 0 0 0 0 0 0 0 0 0 0 0 0 0 0 0 0 0 0 0
27 25 31 31 14 1 0 0 0 0 0 0 0 0 0 0 0 0 0 0 0 0 0 0 0 0 0 0 0 0 0 0 0 0 0 0 0 0 0 0 0 0 0
14 11 16 22 13 2 0 0 0 0 0 0 0 0 0 0 0 0 0 0 0 0 0 0 0 0 0 0 0 0 0 0 0 0 0 0 0 0 0 0 0 0 0
3 4 11 16 11 3 0 0 0 0 0 0 0 0 0 0 0 0 0 0 0 0 0 0 0 0 0 0 0 0 0 0 0 0 0 0 2 2 1 0 0 0 0
5 7 13 16 11 4 1 1 0 0 0 0 0 0 0 0 0 0 0 0 0 0 0 0 0 0 0 0 0 0 0 0 0 0 0 2 9 13 9 3 1 0 0
21 16 16 18 12 5 4 3 2 0 0 0 0 0 0 0 0 0 0 0 0 0 0 0 0 0 0 0 0 0 0 0 0 0 1 9 26 37 28 12 4 1 0
40 28 17 14 10 5 5 5 4 2 1 1 1 1 1 1 1 1 1 2 2 2 1 0 0 0 1 1 1 1 0 0 0 0 2 18 49 66 54 30 11 4 2
49 36 17 7 6 4 4 4 4 4 4 3 3 2 2 2 3 4 7 10 11 9 6 3 2 1 3 4 5 4 3 1 0 0 1 22 63 86 77 51 23 7 4
46 36 18 8 6 4 4 4 5 6 6 6 5 4 4 3 5 12 24 29 28 25 22 18 13 8 7 10 15 15 11 5 1 0 1 24 67 93 89 65 33 12 6
31 27 21 18 13 6 10 16 14 10 9 8 8 10 11 7 6 19 40 54 55 52 49 46 37 24 14 13 23 29 23 11 3 0 5 32 72 95 92 72 41 18 8
14 14 19 27 23 11 20 34 28 19 23 23 20 24 28 22 13 18 43 70 78 75 71 66 56 39 21 13 23 36 32 16 4 2 14 47 81 94 90 74 49 25 14
7 7 13 27 30 21 29 44 38 34 45 49 43 47 51 45 30 24 43 72 83 80 74 66 57 43 26 17 19 28 30 19 8 5 23 58 84 90 86 74 55 33 20
14 13 16 32 40 33 36 46 45 45 56 66 69 70 72 68 54 46 55 71 79 78 72 64 58 45 31 22 16 15 19 19 14 12 29 58 78 83 80 68 52 34 22
34 32 38 55 61 52 49 53 50 50 57 69 79 83 84 83 77 70 71 76 77 76 73 69 63 51 37 27 19 12 12 17 22 24 37 56 69 74 71 59 44 31 23
58 60 68 80 84 76 68 63 57 56 65 74 82 87 89 90 89 84 79 77 75 71 69 67 63 54 42 32 24 18 15 19 28 36 46 57 62 62 59 53 43 33 27
79 82 87 92 94 91 83 75 68 68 73 80 85 87 88 89 87 82 74 69 66 64 64 61 57 55 48 38 30 25 22 24 29 37 46 54 55 51 50 49 45 38 33
91 94 94 92 93 93 87 79 72 70 72 76 78 80 81 78 74 70 64 58 57 58 58 54 53 54 51 44 36 30 28 28 28 31 37 46 48 46 45 44 42 39 35
95 96 94 92 91 88 82 72 64 61 59 58 62 68 67 58 52 51 49 46 47 50 49 45 46 48 44 38 32 29 29 31 31 31 35 39 40 40 39 37 37 37 33
92 91 90 90 87 81 73 63 56 51 46 41 46 53 47 36 33 32 31 31 32 34 36 34 32 32 31 26 19 18 25 30 34 37 36 33 29 28 27 28 33 36 35
89 87 86 82 76 70 64 58 52 46 36 28 31 35 29 22 20 19 18 18 19 21 24 22 19 17 18 17 12 9 14 23 31 37 37 32 25 20 17 20 29 37 39
86 84 80 73 66 61 58 50 44 37 27 19 22 28 25 19 16 14 15 14 13 13 15 15 12 9 7 10 11 8 7 13 21 27 33 33 30 25 16 14 22 32 36
75 74 73 71 65 60 55 45 38 34 25 19 26 36 35 25 17 16 15 14 11 9 9 10 8 5 3 5 8 8 6 8 11 15 20 26 32 30 18 12 16 24 29
62 65 73 76 73 68 62 54 47 41 35 33 42 52 49 36 26 24 22 18 13 9 6 6 6 4 2 2 3 4 5 6 6 7 8 14 23 25 20 15 16 21 25
56 63 74 81 80 77 73 69 65 57 50 51 57 62 59 48 40 37 34 29 22 14 8 6 6 4 2 1 1 1 2 3 3 3 2 4 9 15 19 21 21 22 22
53 62 73 81 85 84 80 78 76 70 61 59 63 65 62 55 49 44 41 37 29 19 10 7 6 5 3 1 0 0 0 0 1 2 1 0 2 8 16 23 24 22 21
Wind_Speed
18 18 19 16 15 14 15 14 14 14 13 12 11 11 10 10 10 10 10 9 9 9 9 9 9 8 9 9 9 9 9 9 9 9 10 10 10 9 8 7 6 10 13
22 19 19 17 15 14 14 14 13 13 13 12 11 11 10 9 9 9 9 8 8 8 8 8 8 8 8 8 7 7 7 6 6 6 7 8 9 8 7 7 8 10 12
21 19 18 16 15 14 14 13 13 13 12 12 11 10 9 9 9 8 8 7 7 8 7 7 7 7 7 6 6 5 5 3 3 3 5 5 8 8 7 9 11 11 10
20 17 16 17 15 15 14 13 13 12 12 11 10 10 9 8 8 8 7 7 6 7 6 6 6 6 5 5 5 4 3 2 3 4 6 5 6 10 8 8 8 8 8
19 17 17 18 16 15 14 13 12 12 11 11 10 9 9 8 7 7 7 6 6 6 6 6 5 5 5 5 4 3 3 3 5 8 7 3 6 11 10 8 7 6 6
19 18 18 18 16 14 13 12 11 11 11 10 9 9 8 8 7 7 6 6 5 5 5 5 5 6 6 5 5 5 5 6 7 8 6 4 8 12 12 10 8 7 6
19 18 18 17 16 14 13 12 11 10 10 9 9 8 8 8 7 7 7 7 6 6 6 6 6 7 7 7 7 7 7 8 8 8 6 3 9 15 13 11 9 8 7
20 18 16 17 16 14 13 12 11 10 10 9 9 8 8 8 8 8 8 8 8 8 8 8 8 8 9 9 9 10 10 10 10 10 8 5 13 17 15 13 11 9 8
20 18 15 14 13 14 13 12 11 11 10 10 10 9 9 9 10 10 10 10 11 10 10 10 10 10 11 10 11 12 12 13 10 7 10 4 15 18 17 15 12 10 10
17 18 15 15 13 12 12 14 13 13 12 11 11 11 11 11 12 13 13 13 14 14 13 13 13 12 12 12 12 13 14 12 11 11 8 6 17 19 17 16 14 12 11
12 15 15 16 14 13 13 15 15 14 13 12 11 13 12 10 11 12 18 18 18 17 16 15 15 14 13 13 15 15 14 8 11 9 8 10 18 19 18 16 15 14 13
11 12 10 14 14 13 11 11 10 10 11 11 9 11 10 9 9 11 11 20 21 20 18 17 16 14 12 9 13 17 9 12 11 9 8 13 18 19 18 16 15 15 14
12 9 8 9 9 8 6 9 7 6 7 11 11 9 8 7 7 7 4 8 12 14 11 12 13 10 10 8 7 7 10 10 7 7 7 15 18 19 18 17 16 15 15
13 11 10 6 5 2 1 2 4 3 4 5 7 9 7 4 4 4 2 2 4 5 7 7 5 8 9 9 10 9 10 8 6 4 5 14 17 17 18 17 16 16 16
13 11 9 8 6 3 1 2 2 1 2 2 2 4 4 3 3 3 2 2 3 3 3 4 4 4 4 4 6 8 7 7 7 5 3 13 16 17 17 17 17 17 17
12 11 10 8 8 5 3 2 3 3 2 2 1 1 2 2 2 2 3 3 4 4 3 3 4 3 3 4 6 7 6 7 5 5 4 8 15 17 18 18 18 18 18
10 10 10 9 9 7 6 5 4 4 3 1 1 1 1 1 1 2 3 3 4 3 4 3 4 3 4 5 7 8 7 6 6 5 4 3 6 14 17 18 18 18 18
9 9 9 8 10 9 5 3 2 2 1 1 1 1 1 2 2 2 3 4 3 3 3 4 4 4 4 5 6 6 6 5 7 6 6 5 5 6 11 18 18 18 18
7 8 7 5 6 7 6 4 3 2 1 2 1 1 2 2 2 2 2 3 3 3 3 5 3 3 4 5 6 7 6 6 6 8 8 8 7 6 6 10 18 19 20
9 8 7 5 4 4 4 3 2 2 2 2 1 2 2 2 3 2 3 3 3 3 3 3 4 4 4 5 7 7 5 7 7 7 9 8 7 9 9 10 9 13 20
9 8 6 6 4 2 2 1 1 1 1 1 1 3 2 1 2 2 3 3 4 3 3 4 4 5 5 4 4 5 6 8 8 7 8 8 9 10 9 9 7 6 8
8 7 6 6 4 3 3 1 1 0 1 1 0 2 2 1 1 3 2 3 3 3 5 5 4 3 4 3 3 3 4 4 5 8 7 8 9 8 8 11 8 8 7
7 5 4 4 3 2 2 1 1 1 2 2 1 1 2 1 1 2 2 2 3 4 4 4 4 5 4 4 3 3 3 3 3 3 6 6 7 7 7 6 8 9 10
5 4 4 3 2 1 1 2 3 3 3 3 2 1 1 2 3 3 3 3 3 3 4 5 3 4 5 5 4 4 5 4 4 4 4 4 6 7 7 8 8 8 9
6 5 4 3 2 1 1 3 3 4 4 4 3 3 2 3 5 5 4 3 3 3 4 4 4 4 4 5 5 4 5 5 6 6 6 5 4 4 5 6 5 4 5
9 9 8 6 5 4 4 4 4 6 6 7 6 6 5 4 4 5 5 4 3 3 3 3 4 5 5 5 5 5 5 5 5 5 6 6 5 4 4 4 4 4 3
Wind_Direction
122 132 134 132 131 132 134 136 136 134 133 131 129 126 123 118 114 110 107 106 106 106 107 105 100 94 92 90 88 85 84 84 86 90 94 96 95 94 92 90 107 107 108
124 132 135 134 135 136 138 139 139 139 138 137 135 133 131 127 123 119 118 116 113 111 111 110 105 102 98 96 95 96 96 98 105 111 118 117 111 104 91 71 71 112 116
124 133 136 136 138 139 141 142 143 143 143 142 141 140 140 137 133 131 129 127 123 120 119 118 114 112 109 107 105 107 111 120 141 159 182 163 131 121 105 91 97 114 119
127 139 139 140 142 143 143 145 147 148 148 148 148 149 149 148 146 144 141 139 136 134 133 133 131 129 125 124 126 128 139 191 235 240 227 204 148 135 126 114 115 122 127
134 139 137 146 146 147 148 150 153 154 155 156 157 158 160 161 160 158 156 156 156 154 154 155 154 152 151 153 156 167 192 239 265 266 260 187 139 147 143 138 139 141 143
137 135 142 150 150 152 153 156 159 161 162 164 165 168 171 174 177 176 175 178 180 181 181 181 181 180 180 184 190 199 216 240 264 261 256 188 146 157 153 155 161 168 169
135 135 147 153 154 157 160 163 166 168 171 174 177 181 186 190 194 197 198 200 202 206 209 209 207 205 203 203 207 213 223 238 254 271 269 224 151 158 160 166 174 187 191
131 136 144 155 158 162 166 170 175 179 182 186 190 195 201 207 211 216 219 219 220 222 226 228 227 224 220 217 216 219 224 239 243 250 253 224 157 163 168 173 181 195 203
131 134 148 157 162 168 174 178 183 189 193 197 203 208 213 219 224 227 229 229 229 229 232 234 236 235 232 227 225 225 227 233 255 269 269 239 165 169 172 176 183 197 209
134 140 154 159 165 173 180 187 191 196 201 206 212 218 223 229 233 234 234 229 229 229 229 232 236 239 238 234 231 230 232 235 242 252 255 233 172 174 177 180 188 199 210
138 144 163 160 169 180 183 183 191 199 205 210 217 223 227 233 233 227 228 226 224 225 227 229 232 236 239 239 235 232 231 233 238 238 239 215 180 179 180 184 191 202 211
161 156 167 162 169 187 188 164 186 195 198 207 214 210 212 226 241 246 225 216 219 221 225 228 232 234 236 240 234 226 227 230 241 243 233 197 181 182 183 188 195 204 213
169 167 172 164 165 186 166 162 189 196 186 197 214 213 210 222 234 243 234 204 211 218 224 228 227 229 230 231 239 214 216 230 231 236 224 186 182 184 187 192 200 208 215
170 173 174 162 146 181 123 184 181 196 181 193 195 206 212 213 244 270 280 235 201 209 212 228 221 220 225 232 238 234 218 220 235 233 208 185 184 188 192 197 203 211 217
166 171 166 152 144 146 85 322 277 253 234 213 177 201 214 217 234 264 291 290 274 260 232 222 240 246 247 251 252 252 247 231 232 233 209 190 189 193 198 204 209 214 219
161 163 154 150 147 150 168 217 284 284 262 260 235 211 206 227 243 272 273 273 276 282 288 290 282 277 271 264 263 263 262 259 246 235 222 200 202 202 205 209 213 217 220
159 157 150 159 157 160 186 207 226 239 249 255 281 253 225 250 270 271 277 275 268 274 280 277 275 268 260 258 258 258 255 255 259 256 249 225 214 216 216 215 216 219 220
155 143 148 165 158 160 173 192 253 267 309 319 294 330 29 359 313 284 279 276 279 279 268 258 248 252 254 256 255 253 250 247 248 248 246 238 227 231 228 225 221 220 223
119 119 121 123 134 148 163 176 221 232 255 272 270 92 61 341 323 315 289 279 281 276 268 272 266 248 252 252 254 248 241 244 241 244 239 235 235 233 232 230 223 220 222
113 116 121 117 113 139 147 161 212 209 229 222 181 101 64 355 1 358 297 310 309 283 275 276 285 276 260 255 262 264 244 236 230 229 232 234 234 235 234 239 226 221 220
115 119 123 125 126 135 125 163 198 163 277 308 113 102 85 4 6 317 304 338 305 297 311 295 284 282 275 260 261 268 256 238 231 226 223 226 231 232 230 230 225 225 220
109 115 125 137 147 161 131 142 174 298 267 242 124 135 143 81 353 303 12 319 319 320 288 280 296 294 290 282 268 282 283 265 234 231 221 221 227 229 233 234 225 224 228
107 113 120 115 135 159 126 233 246 215 262 272 244 172 144 146 260 285 299 297 314 301 307 330 298 288 292 296 262 254 273 282 317 267 235 229 224 224 230 233 229 226 222
107 113 103 110 114 93 58 311 310 290 288 285 265 238 176 221 238 241 244 255 274 289 299 295 332 328 303 292 285 258 251 268 282 291 277 251 233 229 232 238 241 229 222
52 52 52 76 81 36 349 317 303 293 294 298 310 311 283 258 234 228 222 219 240 259 275 293 303 295 292 287 291 295 287 275 258 261 277 275 259 236 230 231 237 239 226
34 37 31 32 29 13 350 335 323 313 312 310 309 304 296 276 250 232 220 204 221 246 267 276 279 278 274 280 283 282 282 277 274 267 273 278 275 264 246 234 226 226 226